Language: 


Des rapports , des résumés tant et plus, au choix de chacun....


Données Historiques de Météogheer
Journalier Rapport pour Février 25, 2018 Unitée:  Impériale    Métrique   Les deux
Suivant Jour »
Journalier Hebdomadaire Mensuel Annuel Sur mesure
  Max: Min: Moyenne:
Température: 38.8 °F 26.4 °F 31.6 °F
Point de rosée: 17.6 °F 8.6 °F 12.7 °F
Humidité: 58% 29% 47%
Vent: 17.9mph 4.9mph 9.4mph
Rafales: 19.2mph - -
Vent- - ENE
Pression: 30.3 in 30.2 in -
Pluie: 0 in    
Historical Graphs
 
 
Données tabulaires pour Février 25, 2018
Heure Température Point de rosée Pression Vent Vent Rafales Humidité Pluie Taux (Horaire) Conditions
00:02 31.8 °F 17.6 °F 30.2 in NNE 10.3 mph 13 mph 58% 0 in
00:07 31.8 °F 17.6 °F 30.2 in ENE 11 mph 13.2 mph 58% 0 in
00:12 31.8 °F 17.6 °F 30.2 in NNE 13.2 mph 13.2 mph 57% 0 in
00:17 31.6 °F 17.6 °F 30.2 in NE 9.8 mph 13.2 mph 57% 0 in
00:22 31.6 °F 17.6 °F 30.2 in NE 12.5 mph 13.2 mph 57% 0 in
00:27 31.6 °F 17.6 °F 30.2 in NE 8.7 mph 14.8 mph 57% 0 in
00:33 31.5 °F 15.8 °F 30.2 in NE 10.3 mph 14.8 mph 57% 0 in
00:38 31.3 °F 15.8 °F 30.2 in NE 9.4 mph 11.9 mph 56% 0 in
00:43 31.3 °F 15.8 °F 30.2 in ENE 8.7 mph 15.7 mph 56% 0 in
00:48 31.3 °F 15.8 °F 30.2 in NE 8.5 mph 15.7 mph 56% 0 in
00:51 31.3 °F 15.8 °F 30.2 in ENE 12.8 mph 15.7 mph 56% 0 in
00:56 31.1 °F 15.8 °F 30.2 in East 6 mph 12.8 mph 56% 0 in
01:01 31.1 °F 15.8 °F 30.2 in ENE 12.3 mph 12.8 mph 56% 0 in
01:06 31.1 °F 15.8 °F 30.2 in NE 6.3 mph 13.4 mph 56% 0 in
01:11 30.9 °F 15.8 °F 30.2 in East 6.7 mph 14.5 mph 56% 0 in
01:16 30.9 °F 15.8 °F 30.2 in NE 8.7 mph 14.5 mph 56% 0 in
01:21 30.7 °F 15.8 °F 30.2 in ENE 8.7 mph 10.7 mph 56% 0 in
01:26 30.6 °F 15.8 °F 30.2 in NE 7.8 mph 13 mph 56% 0 in
01:31 30.6 °F 15.8 °F 30.2 in ENE 7.8 mph 13.2 mph 56% 0 in
01:36 30.4 °F 15.8 °F 30.2 in ENE 10.7 mph 13.2 mph 56% 0 in
01:41 30.4 °F 15.8 °F 30.2 in NE 12.1 mph 15.7 mph 56% 0 in
01:46 30.4 °F 15.8 °F 30.2 in East 13.2 mph 15.7 mph 56% 0 in
01:51 30.2 °F 15.8 °F 30.2 in ENE 10.7 mph 14.1 mph 56% 0 in
01:57 30.2 °F 15.8 °F 30.2 in ENE 6 mph 14.1 mph 56% 0 in
02:02 30 °F 15.8 °F 30.2 in East 11 mph 12.8 mph 57% 0 in
02:07 30 °F 15.8 °F 30.2 in ENE 10.5 mph 15.2 mph 57% 0 in
02:12 29.8 °F 15.8 °F 30.2 in ENE 10.5 mph 15.2 mph 57% 0 in
02:17 29.8 °F 15.8 °F 30.2 in East 6 mph 13.2 mph 57% 0 in
02:22 29.7 °F 15.8 °F 30.2 in ENE 9.8 mph 13.2 mph 57% 0 in
02:27 29.7 °F 15.8 °F 30.2 in ENE 6.5 mph 13.2 mph 57% 0 in
02:32 29.5 °F 15.8 °F 30.2 in ENE 10.5 mph 13 mph 57% 0 in
02:37 29.5 °F 15.8 °F 30.2 in ENE 8.1 mph 13 mph 57% 0 in
02:42 29.5 °F 15.8 °F 30.2 in East 8.5 mph 12.5 mph 57% 0 in
02:47 29.5 °F 15.8 °F 30.2 in NE 7.4 mph 12.5 mph 57% 0 in
02:52 29.5 °F 15.8 °F 30.2 in East 8.7 mph 12.3 mph 57% 0 in
02:57 29.3 °F 14 °F 30.2 in ENE 7.4 mph 12.3 mph 57% 0 in
03:02 29.5 °F 14 °F 30.2 in ENE 9.4 mph 12.1 mph 56% 0 in
03:07 29.3 °F 14 °F 30.2 in NE 7.6 mph 13 mph 56% 0 in
03:12 29.3 °F 14 °F 30.2 in NE 6 mph 13 mph 56% 0 in
03:17 29.3 °F 14 °F 30.2 in ENE 6 mph 11 mph 56% 0 in
03:22 29.1 °F 14 °F 30.2 in NE 8.9 mph 11 mph 56% 0 in
03:27 29.1 °F 14 °F 30.2 in NE 7.4 mph 11.9 mph 56% 0 in
03:32 28.9 °F 14 °F 30.2 in ENE 7.8 mph 11.9 mph 56% 0 in
03:37 28.9 °F 14 °F 30.2 in ENE 8.1 mph 11 mph 56% 0 in
03:43 28.9 °F 14 °F 30.2 in East 7.8 mph 11.9 mph 56% 0 in
03:48 28.8 °F 14 °F 30.2 in East 13.2 mph 13.2 mph 56% 0 in
03:53 28.8 °F 14 °F 30.2 in NE 7.2 mph 13.2 mph 56% 0 in
03:58 28.8 °F 14 °F 30.2 in East 7.8 mph 13.2 mph 56% 0 in
04:03 28.6 °F 14 °F 30.2 in East 6.3 mph 11 mph 56% 0 in
04:08 28.6 °F 14 °F 30.2 in East 6.5 mph 12.3 mph 56% 0 in
04:13 28.6 °F 14 °F 30.2 in East 6.3 mph 12.3 mph 56% 0 in
04:18 28.6 °F 14 °F 30.2 in ENE 7.6 mph 12.3 mph 56% 0 in
04:23 28.6 °F 14 °F 30.2 in East 8.1 mph 12.3 mph 56% 0 in
04:28 28.6 °F 14 °F 30.2 in East 10.1 mph 12.1 mph 56% 0 in
04:33 28.4 °F 14 °F 30.2 in East 6 mph 11 mph 56% 0 in
04:38 28.4 °F 14 °F 30.2 in ENE 8.7 mph 13 mph 56% 0 in
04:43 28.4 °F 14 °F 30.2 in ENE 7.6 mph 13.9 mph 56% 0 in
04:48 28.4 °F 14 °F 30.2 in NE 9.8 mph 13.9 mph 56% 0 in
04:53 28.4 °F 14 °F 30.2 in NE 9.4 mph 12.8 mph 56% 0 in
04:58 28.2 °F 12.2 °F 30.2 in ENE 6.5 mph 11.4 mph 55% 0 in
05:04 28.2 °F 14 °F 30.2 in East 10.3 mph 10.7 mph 56% 0 in
05:09 28.2 °F 14 °F 30.2 in ENE 11 mph 11 mph 56% 0 in
05:14 28 °F 12.2 °F 30.2 in NE 8.1 mph 12.1 mph 55% 0 in
05:19 28 °F 14 °F 30.2 in ENE 8.9 mph 12.1 mph 56% 0 in
05:24 27.9 °F 12.2 °F 30.2 in NNE 8.1 mph 12.3 mph 56% 0 in
05:29 27.9 °F 12.2 °F 30.2 in ENE 7.2 mph 12.3 mph 56% 0 in
05:34 27.9 °F 12.2 °F 30.2 in ENE 10.7 mph 10.7 mph 56% 0 in
05:39 27.9 °F 12.2 °F 30.2 in ENE 7.6 mph 13.2 mph 56% 0 in
05:44 27.7 °F 12.2 °F 30.2 in ENE 10.3 mph 13.2 mph 56% 0 in
05:49 27.7 °F 12.2 °F 30.2 in East 7.4 mph 13 mph 56% 0 in
05:54 27.7 °F 12.2 °F 30.2 in ENE 7.8 mph 17.4 mph 56% 0 in
05:59 27.7 °F 12.2 °F 30.2 in NE 11 mph 17.4 mph 56% 0 in
06:04 27.5 °F 12.2 °F 30.2 in ENE 8.7 mph 12.8 mph 56% 0 in
06:09 27.5 °F 12.2 °F 30.2 in ENE 10.5 mph 12.3 mph 56% 0 in
06:14 27.5 °F 12.2 °F 30.2 in NNE 10.1 mph 13.2 mph 55% 0 in
06:19 27.3 °F 12.2 °F 30.2 in East 7.6 mph 13.2 mph 56% 0 in
06:24 27.3 °F 12.2 °F 30.2 in East 7.4 mph 12.5 mph 56% 0 in
06:29 27.3 °F 12.2 °F 30.2 in ENE 8.9 mph 14.5 mph 56% 0 in
06:34 27.1 °F 12.2 °F 30.2 in East 11.2 mph 14.5 mph 56% 0 in
06:39 27.1 °F 12.2 °F 30.2 in ENE 10.3 mph 13.6 mph 56% 0 in
06:44 27.1 °F 12.2 °F 30.2 in ENE 8.9 mph 13.6 mph 55% 0 in
06:49 27.1 °F 12.2 °F 30.2 in East 8.9 mph 15.7 mph 55% 0 in
06:54 27.1 °F 12.2 °F 30.2 in East 8.7 mph 15.7 mph 55% 0 in
07:00 27 °F 12.2 °F 30.2 in ENE 12.8 mph 15.9 mph 55% 0 in
07:05 27 °F 12.2 °F 30.2 in East 7.4 mph 15.9 mph 55% 0 in
07:10 27 °F 12.2 °F 30.2 in ENE 9.8 mph 13.2 mph 55% 0 in
07:15 26.8 °F 12.2 °F 30.2 in ENE 10.1 mph 13.2 mph 55% 0 in
07:20 26.8 °F 12.2 °F 30.2 in ENE 6.7 mph 11.2 mph 55% 0 in
07:25 26.6 °F 12.2 °F 30.2 in East 7.8 mph 13.2 mph 56% 0 in
07:30 26.6 °F 12.2 °F 30.3 in East 7.6 mph 13.2 mph 56% 0 in
07:35 26.4 °F 12.2 °F 30.3 in NNE 10.3 mph 11.9 mph 56% 0 in
07:40 26.4 °F 12.2 °F 30.3 in NE 8.7 mph 13.9 mph 56% 0 in
07:45 26.4 °F 12.2 °F 30.3 in ENE 10.7 mph 15.4 mph 56% 0 in
07:50 26.4 °F 12.2 °F 30.3 in ENE 8.7 mph 15.4 mph 56% 0 in
07:55 26.4 °F 12.2 °F 30.3 in NE 9.8 mph 14.5 mph 56% 0 in
08:00 26.4 °F 12.2 °F 30.3 in NE 8.1 mph 14.5 mph 56% 0 in
08:05 26.4 °F 12.2 °F 30.3 in ENE 9.8 mph 13.9 mph 56% 0 in
08:10 26.6 °F 12.2 °F 30.3 in ENE 10.5 mph 17.2 mph 56% 0 in
08:15 26.8 °F 12.2 °F 30.3 in ENE 10.7 mph 17.2 mph 56% 0 in
08:20 27 °F 12.2 °F 30.3 in ENE 8.7 mph 12.8 mph 55% 0 in
08:25 27.1 °F 12.2 °F 30.3 in ENE 8.5 mph 13.4 mph 55% 0 in
08:30 27.3 °F 12.2 °F 30.3 in ENE 10.5 mph 13.4 mph 55% 0 in
08:35 27.5 °F 12.2 °F 30.3 in ENE 11 mph 15.4 mph 54% 0 in
08:40 27.9 °F 12.2 °F 30.3 in NE 11 mph 15.9 mph 54% 0 in
08:45 28 °F 12.2 °F 30.3 in NE 8.1 mph 17.4 mph 53% 0 in
08:51 28.2 °F 12.2 °F 30.3 in East 8.1 mph 17.4 mph 53% 0 in
08:56 28.4 °F 12.2 °F 30.3 in East 8.7 mph 17 mph 53% 0 in
09:01 28.6 °F 12.2 °F 30.3 in NE 8.7 mph 17 mph 52% 0 in
09:06 28.8 °F 12.2 °F 30.3 in ENE 10.7 mph 15.4 mph 52% 0 in
09:11 28.9 °F 12.2 °F 30.3 in East 8.9 mph 15.4 mph 52% 0 in
09:16 29.1 °F 12.2 °F 30.3 in ESE 10.3 mph 14.5 mph 51% 0 in
09:21 29.3 °F 12.2 °F 30.3 in ENE 12.8 mph 16.3 mph 51% 0 in
09:26 29.3 °F 12.2 °F 30.3 in NNE 7.6 mph 16.3 mph 51% 0 in
09:31 29.5 °F 12.2 °F 30.3 in ENE 13.4 mph 15.4 mph 51% 0 in
09:36 29.7 °F 12.2 °F 30.3 in East 12.5 mph 13.4 mph 50% 0 in
09:41 29.8 °F 12.2 °F 30.3 in ENE 11.9 mph 13.9 mph 50% 0 in
09:46 30 °F 12.2 °F 30.3 in ENE 9.8 mph 13.9 mph 50% 0 in
09:51 30.2 °F 12.2 °F 30.3 in ENE 10.7 mph 12.8 mph 50% 0 in
09:56 30.4 °F 12.2 °F 30.3 in East 13.2 mph 13.2 mph 48% 0 in
10:01 30.6 °F 12.2 °F 30.3 in East 12.1 mph 13.2 mph 48% 0 in
10:06 30.9 °F 12.2 °F 30.3 in NE 11.4 mph 13.2 mph 48% 0 in
10:07 30.9 °F 12.2 °F 30.3 in ENE 10.5 mph 13.2 mph 48% 0 in
10:12 31.1 °F 12.2 °F 30.3 in ENE 7.6 mph 13.2 mph 48% 0 in
10:17 31.1 °F 12.2 °F 30.3 in NE 6 mph 15.4 mph 47% 0 in
10:22 31.3 °F 12.2 °F 30.3 in East 8.7 mph 15.4 mph 46% 0 in
10:27 31.8 °F 12.2 °F 30.3 in ENE 6.3 mph 13.2 mph 47% 0 in
10:32 32.2 °F 14 °F 30.3 in ENE 8.1 mph 13.6 mph 47% 0 in
10:37 32.2 °F 14 °F 30.3 in ENE 12.3 mph 17.7 mph 46% 0 in
10:42 32.2 °F 14 °F 30.3 in East 13 mph 17.7 mph 45% 0 in
10:47 32.4 °F 14 °F 30.3 in ENE 5.6 mph 15.4 mph 45% 0 in
10:52 32.7 °F 14 °F 30.3 in ENE 10.3 mph 14.5 mph 45% 0 in
10:57 32.7 °F 14 °F 30.3 in East 8.5 mph 14.8 mph 44% 0 in
11:02 33.1 °F 14 °F 30.3 in NE 10.1 mph 14.8 mph 44% 0 in
11:07 33.3 °F 14 °F 30.3 in East 7.4 mph 13 mph 44% 0 in
11:12 33.6 °F 14 °F 30.3 in East 15.9 mph 15.9 mph 44% 0 in
11:17 33.6 °F 14 °F 30.3 in ENE 11 mph 16.3 mph 43% 0 in
11:22 33.8 °F 14 °F 30.3 in East 7.2 mph 16.3 mph 43% 0 in
11:28 34 °F 14 °F 30.3 in NE 10.5 mph 13.2 mph 43% 0 in
11:33 34.2 °F 14 °F 30.3 in ENE 10.3 mph 13.2 mph 43% 0 in
11:38 34.5 °F 14 °F 30.3 in East 10.5 mph 13.2 mph 43% 0 in
11:43 34.5 °F 14 °F 30.3 in East 7.8 mph 13.2 mph 42% 0 in
11:48 34.7 °F 14 °F 30.3 in ENE 12.1 mph 13.2 mph 42% 0 in
11:53 35.1 °F 14 °F 30.3 in ENE 10.1 mph 12.1 mph 42% 0 in
11:58 35.1 °F 14 °F 30.3 in East 7.6 mph 13.2 mph 42% 0 in
12:03 35.1 °F 14 °F 30.3 in East 10.7 mph 13.2 mph 42% 0 in
12:08 35.1 °F 14 °F 30.3 in East 5.8 mph 13.2 mph 41% 0 in
12:13 35.4 °F 14 °F 30.3 in East 14.5 mph 14.5 mph 41% 0 in
12:18 35.6 °F 14 °F 30.3 in ESE 6.3 mph 14.5 mph 41% 0 in
12:23 35.8 °F 14 °F 30.3 in East 10.1 mph 12.8 mph 41% 0 in
12:28 36 °F 14 °F 30.3 in East 7.6 mph 13 mph 41% 0 in
12:33 36.1 °F 14 °F 30.3 in East 10.5 mph 13 mph 40% 0 in
12:38 36.1 °F 14 °F 30.3 in NE 11 mph 14.1 mph 40% 0 in
12:43 36.3 °F 14 °F 30.3 in East 8.5 mph 14.1 mph 40% 0 in
12:48 36.5 °F 15.8 °F 30.3 in East 12.5 mph 12.8 mph 40% 0 in
12:53 36.7 °F 15.8 °F 30.3 in NE 10.1 mph 12.8 mph 40% 0 in
12:58 36.7 °F 15.8 °F 30.3 in NE 10.1 mph 12.5 mph 40% 0 in
13:03 36.7 °F 15.8 °F 30.3 in NE 8.7 mph 15.4 mph 40% 0 in
13:08 36.9 °F 14 °F 30.3 in ENE 10.7 mph 15.4 mph 39% 0 in
13:14 37 °F 15.8 °F 30.3 in ENE 8.7 mph 14.8 mph 39% 0 in
13:19 37.2 °F 15.8 °F 30.3 in NE 12.8 mph 15.4 mph 39% 0 in
13:24 37.4 °F 15.8 °F 30.3 in ENE 10.1 mph 15.4 mph 39% 0 in
13:29 37.4 °F 14 °F 30.3 in ENE 12.5 mph 15.4 mph 38% 0 in
13:34 37.4 °F 15.8 °F 30.3 in NE 8.7 mph 15.4 mph 39% 0 in
13:39 37.9 °F 15.8 °F 30.3 in ENE 7.8 mph 12.5 mph 39% 0 in
13:44 38.3 °F 15.8 °F 30.3 in ENE 5.6 mph 10.5 mph 39% 0 in
13:49 38.1 °F 15.8 °F 30.3 in NNE 5.6 mph 11 mph 39% 0 in
13:54 38.3 °F 15.8 °F 30.3 in East 8.1 mph 11 mph 39% 0 in
13:59 38.5 °F 15.8 °F 30.3 in NE 7.4 mph 10.3 mph 38% 0 in
14:04 38.5 °F 15.8 °F 30.3 in East 6 mph 10.3 mph 38% 0 in
14:09 38.5 °F 14 °F 30.3 in NE 9.2 mph 10.3 mph 37% 0 in
14:14 38.7 °F 15.8 °F 30.3 in ENE 8.5 mph 10.3 mph 38% 0 in
14:19 38.5 °F 14 °F 30.3 in East 5.6 mph 10.3 mph 36% 0 in
14:24 38.5 °F 14 °F 30.3 in ENE 11 mph 15.4 mph 37% 0 in
14:29 38.5 °F 14 °F 30.3 in East 8.1 mph 15.4 mph 35% 0 in
14:34 38.7 °F 14 °F 30.3 in NNE 11.2 mph 13.4 mph 35% 0 in
14:40 38.5 °F 14 °F 30.3 in ENE 9.8 mph 13.2 mph 36% 0 in
14:45 38.7 °F 14 °F 30.3 in NE 11.9 mph 12.5 mph 36% 0 in
14:50 38.7 °F 14 °F 30.3 in NE 8.7 mph 13 mph 35% 0 in
14:55 38.7 °F 14 °F 30.3 in NE 10.1 mph 13 mph 35% 0 in
15:00 38.8 °F 12.2 °F 30.3 in ENE 7.8 mph 13 mph 34% 0 in
15:05 38.7 °F 14 °F 30.3 in NE 10.3 mph 14.1 mph 35% 0 in
15:10 38.5 °F 14 °F 30.3 in NE 10.1 mph 18.6 mph 35% 0 in
15:15 38.5 °F 12.2 °F 30.2 in NE 9.8 mph 18.6 mph 34% 0 in
15:20 38.5 °F 12.2 °F 30.2 in NNE 11 mph 17 mph 33% 0 in
15:25 38.3 °F 12.2 °F 30.2 in NE 10.5 mph 17 mph 33% 0 in
15:30 38.3 °F 12.2 °F 30.3 in NE 12.1 mph 15.9 mph 33% 0 in
15:35 38.5 °F 12.2 °F 30.3 in ENE 10.7 mph 15.9 mph 33% 0 in
15:40 38.7 °F 12.2 °F 30.3 in ENE 8.1 mph 13 mph 32% 0 in
15:45 38.7 °F 12.2 °F 30.3 in NE 12.3 mph 16.6 mph 32% 0 in
15:50 38.7 °F 12.2 °F 30.3 in NE 13 mph 17.4 mph 32% 0 in
15:55 38.5 °F 12.2 °F 30.3 in NE 12.3 mph 17.4 mph 33% 0 in
16:00 38.7 °F 12.2 °F 30.3 in ENE 8.7 mph 17.7 mph 32% 0 in
16:05 38.3 °F 10.4 °F 30.3 in NE 12.3 mph 17.7 mph 31% 0 in
16:11 38.1 °F 10.4 °F 30.3 in NE 13.2 mph 18.6 mph 31% 0 in
16:16 37.9 °F 10.4 °F 30.3 in NE 10.7 mph 18.6 mph 30% 0 in
16:21 37.9 °F 10.4 °F 30.3 in NE 8.5 mph 15.2 mph 30% 0 in
16:26 37.9 °F 10.4 °F 30.3 in ENE 12.5 mph 17.2 mph 30% 0 in
16:31 37.6 °F 8.6 °F 30.2 in ENE 10.3 mph 17.2 mph 29% 0 in
16:36 37.6 °F 8.6 °F 30.2 in ENE 6.3 mph 17 mph 30% 0 in
16:41 37.6 °F 8.6 °F 30.2 in NE 11 mph 14.1 mph 30% 0 in
16:46 37.4 °F 8.6 °F 30.3 in ENE 9.8 mph 14.1 mph 30% 0 in
16:51 37 °F 8.6 °F 30.3 in NE 10.3 mph 19.2 mph 30% 0 in
16:56 36.9 °F 8.6 °F 30.3 in ENE 12.1 mph 19.2 mph 30% 0 in
17:01 36.7 °F 10.4 °F 30.3 in NE 8.5 mph 12.3 mph 32% 0 in
17:06 36.5 °F 10.4 °F 30.3 in ENE 10.1 mph 16.1 mph 32% 0 in
17:11 36.5 °F 10.4 °F 30.3 in NE 8.5 mph 16.1 mph 31% 0 in
17:16 36.1 °F 8.6 °F 30.3 in ENE 17.9 mph 17.9 mph 30% 0 in
17:21 36 °F 8.6 °F 30.3 in NNE 10.1 mph 17.9 mph 31% 0 in
17:26 35.8 °F 8.6 °F 30.3 in NNE 10.7 mph 17.9 mph 32% 0 in
17:31 35.6 °F 10.4 °F 30.3 in ENE 12.1 mph 14.8 mph 33% 0 in
17:36 35.4 °F 10.4 °F 30.3 in ENE 14.8 mph 14.8 mph 35% 0 in
17:41 35.2 °F 10.4 °F 30.3 in NE 10.5 mph 15.4 mph 35% 0 in
17:47 35.1 °F 10.4 °F 30.3 in NE 8.1 mph 16.8 mph 35% 0 in
17:52 34.7 °F 10.4 °F 30.3 in NE 12.3 mph 16.8 mph 34% 0 in
17:57 34.3 °F 8.6 °F 30.3 in NNE 8.5 mph 15.4 mph 34% 0 in
18:02 34.2 °F 10.4 °F 30.3 in NE 11 mph 15.4 mph 35% 0 in
18:07 34 °F 10.4 °F 30.3 in NNE 8.1 mph 14.5 mph 36% 0 in
18:12 33.6 °F 10.4 °F 30.3 in NE 17.7 mph 17.7 mph 38% 0 in
18:17 33.4 °F 10.4 °F 30.3 in NE 12.3 mph 17.7 mph 38% 0 in
18:22 33.3 °F 12.2 °F 30.3 in NNE 9.6 mph 17.7 mph 39% 0 in
18:27 33.1 °F 12.2 °F 30.3 in NE 8.7 mph 15.4 mph 39% 0 in
18:32 32.9 °F 12.2 °F 30.3 in NE 12.5 mph 12.5 mph 40% 0 in
18:37 32.7 °F 12.2 °F 30.3 in NNE 9.8 mph 12.5 mph 40% 0 in
18:42 32.7 °F 12.2 °F 30.3 in NE 15.4 mph 15.4 mph 40% 0 in
18:46 32.5 °F 12.2 °F 30.3 in NE 9.8 mph 15.4 mph 40% 0 in
18:51 32.5 °F 12.2 °F 30.3 in NE 7.8 mph 15.4 mph 40% 0 in
18:56 32.2 °F 10.4 °F 30.3 in NNE 8.7 mph 12.1 mph 40% 0 in
19:01 32.2 °F 12.2 °F 30.3 in NE 7.8 mph 11 mph 41% 0 in
19:06 32.2 °F 12.2 °F 30.3 in NE 9.8 mph 13.2 mph 41% 0 in
19:11 32 °F 10.4 °F 30.3 in ENE 10.3 mph 13.2 mph 41% 0 in
19:16 32 °F 10.4 °F 30.3 in NE 8.7 mph 12.5 mph 41% 0 in
19:21 31.8 °F 10.4 °F 30.3 in NNE 8.5 mph 12.3 mph 41% 0 in
19:26 31.8 °F 10.4 °F 30.3 in ENE 7.4 mph 13.2 mph 41% 0 in
19:31 31.5 °F 8.6 °F 30.3 in ENE 8.5 mph 13.2 mph 41% 0 in
19:36 31.5 °F 8.6 °F 30.3 in NE 8.9 mph 10.1 mph 41% 0 in
19:38 31.5 °F 8.6 °F 30.3 in NE 7.6 mph 10.1 mph 41% 0 in
19:43 31.3 °F 8.6 °F 30.3 in NE 8.7 mph 8.9 mph 41% 0 in
19:48 31.1 °F 8.6 °F 30.3 in NNE 9.8 mph 9.8 mph 41% 0 in
19:53 31.1 °F 8.6 °F 30.3 in NE 10.5 mph 11 mph 41% 0 in
19:58 30.9 °F 8.6 °F 30.3 in ENE 4.9 mph 11 mph 42% 0 in
20:03 30.6 °F 8.6 °F 30.3 in North 10.1 mph 10.7 mph 42% 0 in
20:08 30.4 °F 8.6 °F 30.3 in NNE 8.5 mph 10.7 mph 42% 0 in
20:13 30.2 °F 8.6 °F 30.3 in NNE 5.8 mph 8.9 mph 43% 0 in
20:18 29.8 °F 10.4 °F 30.3 in NNE 7.4 mph 8.5 mph 44% 0 in
20:23 29.7 °F 10.4 °F 30.3 in NE 9.4 mph 9.4 mph 44% 0 in
20:28 29.5 °F 10.4 °F 30.3 in ENE 8.1 mph 10.1 mph 45% 0 in
20:33 29.5 °F 10.4 °F 30.3 in NE 6.5 mph 10.3 mph 46% 0 in
20:38 29.5 °F 10.4 °F 30.3 in NNE 8.1 mph 10.5 mph 46% 0 in
20:43 29.5 °F 10.4 °F 30.3 in NE 7.8 mph 11.9 mph 47% 0 in
20:48 29.5 °F 10.4 °F 30.3 in NE 6.5 mph 11.9 mph 47% 0 in
20:53 29.5 °F 12.2 °F 30.3 in NE 12.5 mph 12.5 mph 48% 0 in
20:58 29.5 °F 12.2 °F 30.3 in NE 7.4 mph 12.5 mph 49% 0 in
21:03 29.5 °F 12.2 °F 30.3 in NE 10.1 mph 12.5 mph 49% 0 in
21:08 29.5 °F 12.2 °F 30.3 in NE 8.5 mph 12.5 mph 50% 0 in
21:13 29.3 °F 12.2 °F 30.3 in NE 7.8 mph 10.1 mph 50% 0 in
21:18 29.3 °F 12.2 °F 30.3 in NE 12.3 mph 13 mph 50% 0 in
21:23 29.3 °F 12.2 °F 30.3 in ENE 10.1 mph 13 mph 51% 0 in
21:28 29.3 °F 12.2 °F 30.3 in NE 10.7 mph 12.3 mph 51% 0 in
21:33 29.1 °F 12.2 °F 30.3 in NE 8.1 mph 12.3 mph 51% 0 in
21:39 28.9 °F 12.2 °F 30.3 in NE 7.8 mph 11 mph 51% 0 in
21:44 28.9 °F 12.2 °F 30.3 in NE 7.6 mph 12.8 mph 51% 0 in
21:49 28.9 °F 12.2 °F 30.3 in NE 8.7 mph 12.8 mph 51% 0 in
21:54 28.8 °F 12.2 °F 30.3 in ENE 10.5 mph 10.5 mph 51% 0 in
21:59 28.9 °F 12.2 °F 30.3 in NE 9.8 mph 10.7 mph 51% 0 in
22:04 28.9 °F 12.2 °F 30.3 in ENE 8.7 mph 10.7 mph 50% 0 in
22:09 28.9 °F 12.2 °F 30.3 in NE 9.8 mph 10.5 mph 49% 0 in
22:14 29.1 °F 10.4 °F 30.3 in ENE 10.1 mph 13.9 mph 48% 0 in
22:19 28.9 °F 12.2 °F 30.3 in NE 7.4 mph 13.9 mph 49% 0 in
22:24 28.8 °F 12.2 °F 30.3 in ENE 7.6 mph 10.5 mph 49% 0 in
22:29 28.8 °F 12.2 °F 30.3 in NE 8.7 mph 11.9 mph 49% 0 in
22:34 28.8 °F 12.2 °F 30.3 in NE 9.8 mph 11.9 mph 49% 0 in
22:39 28.6 °F 10.4 °F 30.3 in ENE 7.8 mph 11.2 mph 49% 0 in
22:45 28.6 °F 10.4 °F 30.3 in ENE 8.5 mph 13.2 mph 49% 0 in
22:50 28.6 °F 10.4 °F 30.3 in ENE 9.2 mph 13.2 mph 49% 0 in
22:55 28.6 °F 10.4 °F 30.3 in NE 10.3 mph 15.2 mph 49% 0 in
23:00 28.6 °F 10.4 °F 30.3 in NE 12.8 mph 15.2 mph 49% 0 in
23:05 28.4 °F 10.4 °F 30.3 in ENE 7.8 mph 13 mph 50% 0 in
23:10 28.4 °F 10.4 °F 30.3 in NE 7.6 mph 12.8 mph 50% 0 in
23:15 28.2 °F 10.4 °F 30.3 in ENE 8.9 mph 13.2 mph 50% 0 in
23:20 28.2 °F 10.4 °F 30.3 in NE 8.9 mph 13.2 mph 50% 0 in
23:25 28.2 °F 10.4 °F 30.3 in NE 15.4 mph 15.4 mph 50% 0 in
23:30 28.2 °F 10.4 °F 30.3 in ENE 10.3 mph 15.4 mph 50% 0 in
23:35 28 °F 10.4 °F 30.3 in ENE 8.5 mph 15.4 mph 50% 0 in
23:40 28 °F 10.4 °F 30.3 in ENE 8.5 mph 13.2 mph 50% 0 in
23:45 28 °F 10.4 °F 30.3 in ENE 8.5 mph 8.5 mph 50% 0 in
23:50 27.9 °F 10.4 °F 30.3 in ENE 8.5 mph 8.5 mph 51% 0 in
23:55 27.9 °F 10.4 °F 30.3 in ENE 8.5 mph 8.5 mph 51% 0 in
Données Historique de Météo Turbie

Mise a jour : 18/06/2018 01:39:12
Généré par Cumulus 1.9.4 (1099)